#timestamp,LO_Frequency,Hit,StdDev 
1511704815.9,286047001.1,N
1511704835.7,286046999.4,N
1511704855.6,286047005.2,N
1511704875.4,286047007.8,N
1511704895.2,286047010.3,N
1511704915.1,286047012.2,N
1511704916.0,286047012.2,N
1511704935.8,286047009.4,N
1511704955.6,286047008.1,N
1511704975.4,286047002.9,N
1511704995.3,286047001.7,N
1511705015.1,286046999.8,N
1511705035.8,286047001.1,N
1511705055.7,286047003.8,N
1511705075.5,286047007.2,N
1511705095.3,286047007.0,N
1511705115.2,286047005.5,N
1511705135.9,286047005.0,N
1511705155.7,286047009.2,N
1511705175.6,286047007.4,N
1511705195.4,286047010.4,N
1511705215.2,286047010.7,N
1511705235.1,286047008.9,N
1511705236.0,286047008.9,N
1511705255.8,286047008.8,N
1511705275.6,286047006.8,N
1511705295.4,286047007.6,N
1511705315.3,286047005.5,N
1511705335.1,286047005.5,N
1511705355.8,286047005.1,N
1511705375.7,286047003.9,N
1511705395.5,286047001.8,N
1511705415.3,286046999.9,N
1511705435.2,286047002.7,N
1511705455.9,286047002.2,N
1511705475.7,286047004.3,N
1511705495.6,286047009.0,N
1511705515.4,286047006.3,N
1511705535.2,286047009.0,N
1511705555.1,286047007.7,N
1511705556.0,286047007.7,N
1511705575.8,286047010.1,Y
1511705595.6,286047008.2,P
1511705615.5,286047006.6,P
1511705635.3,286047008.0,P
1511705655.1,286047008.8,Y
1511705675.9,286047001.1,P
1511705695.7,286046999.8,N
1511705715.5,286046998.4,N
1511705735.4,286046998.9,N
1511705755.2,286046997.6,N
1511705775.0,286046993.9,N
1511705775.9,286046993.9,N
1511705795.7,286046992.9,N
1511705815.6,286046990.9,N
1511705835.4,286046988.7,N
1511705855.2,286046989.2,N
1511705875.1,286046988.7,N
1511705876.0,286046988.7,N
1511705895.8,286046987.8,N
1511705915.6,286046980.9,Y
1511705935.5,286046983.8,P
1511705955.3,286046991.5,N
1511705975.1,286046991.4,N
1511705995.9,286046990.5,N
1511706015.7,286046988.1,Y
1511706035.5,286046993.5,P
1511706055.4,286046994.7,P
1511706075.2,286046990.4,P
1511706095.0,286046990.3,Y
1511706095.9,286046990.3,P
1511706115.8,286047000.1,N
1511706135.6,286046999.7,N
1511706155.4,286046999.8,N
1511706175.3,286046999.7,N
1511706195.1,286047001.9,N
1511706196.0,286047001.9,N
1511706215.8,286047002.1,N
1511706235.7,286047003.3,N
1511706255.5,286047001.2,N
1511706275.3,286046997.2,N
1511706295.1,286046998.4,N
1511706315.9,286046997.0,N
1511706335.7,286047001.2,N
1511706355.5,286047000.0,N
1511706375.4,286047002.6,N
1511706395.2,286047003.2,N
1511706415.0,286047009.2,N
1511706415.9,286047009.2,N
1511706435.8,286047010.3,N
1511706455.6,286047012.4,N
1511706475.4,286047011.6,N
1511706495.3,286047017.0,Y
1511706515.1,286047010.9,P
1511706535.8,286047011.2,N
1511706555.7,286047010.0,N
1511706575.5,286047010.5,N
1511706595.3,286047006.9,N
1511706615.2,286047007.4,N
1511706635.9,286047006.1,N
1511706655.7,286047006.4,N
1511706675.6,286047006.6,N
1511706695.4,286047008.2,N
1511706715.2,286047011.5,Y
1511706735.1,286047005.3,P
1511706736.0,286047005.3,P
1511706755.8,286047003.8,P
1511706775.6,286047001.5,N
1511706795.4,286047002.0,N
1511706815.3,286047000.2,N
1511706835.1,286047000.6,N
1511706855.8,286046998.3,N
1511706875.7,286046999.1,N
1511706895.5,286047002.7,N
1511706915.3,286047003.7,N
1511706935.2,286047006.3,N
1511706955.9,286047004.6,N
1511706975.7,286047005.1,N
1511706995.6,286047004.6,N
1511707015.4,286047001.6,N
1511707035.2,286047002.1,N
1511707055.0,286047002.0,N
1511707056.0,286047002.0,N
1511707075.8,286047003.5,N
1511707095.6,286047003.8,N
1511707115.5,286047007.3,Y
1511707135.3,286047002.9,P
1511707155.1,286047005.0,P
1511707175.8,286047006.6,P
1511707195.7,286047004.7,Y
1511707215.5,286046995.4,P
1511707235.3,286046992.2,N
1511707255.2,286046994.6,N
1511707275.0,286046995.3,N
1511707275.9,286046995.3,N
1511707295.7,286046998.5,N
1511707315.6,286047002.5,N
1511707335.4,286047001.8,N
1511707355.2,286047002.2,N
1511707375.1,286046999.9,N
1511707376.0,286046999.9,N
1511707395.8,286047001.2,N
1511707415.6,286046999.0,N
1511707435.5,286047004.4,N
1511707455.3,286047005.9,N
1511707475.1,286047005.8,N
1511707495.9,286047002.9,N
1511707515.7,286047007.3,N
1511707535.5,286047004.6,N
1511707555.3,286047004.9,N
1511707575.2,286047001.3,N
1511707595.0,286047003.5,N
1511707595.9,286047003.5,N
1511707615.7,286047003.0,N
1511707635.6,286047004.6,N
1511707655.4,286047004.4,N
1511707675.2,286047005.5,N
1511707695.1,286047006.2,N
1511707696.0,286047006.2,N
1511707715.8,286047006.2,N
1511707735.6,286047006.6,N
1511707755.5,286047007.6,N
1511707775.3,286047003.2,N
1511707795.1,286047004.0,N
1511707815.9,286047007.5,N
1511707835.7,286047004.5,N
1511707855.5,286047004.7,N
1511707875.4,286047003.2,N
1511707895.2,286047009.7,Y
1511707915.0,286047007.7,P
1511707915.9,286047007.7,P
1511707935.8,286047008.4,P
1511707955.6,286047010.5,Y
1511707975.4,286047006.5,P
1511707995.3,286047007.4,P
1511708015.1,286047005.9,P
1511708016.0,286047005.9,Y
1511708035.8,286046996.8,P
1511708055.7,286046998.4,N
1511708075.5,286046998.2,N
1511708095.3,286046995.8,N
1511708115.2,286046995.6,N
1511708135.9,286046999.0,N
1511708155.7,286046999.1,N
1511708175.5,286046998.3,N
1511708195.4,286046996.9,N
1511708215.2,286046995.2,N
1511708235.0,286046995.6,N
1511708235.9,286046995.6,N
1511708255.8,286046996.0,N
1511708275.6,286046993.0,N
1511708295.4,286046992.9,N
1511708315.3,286046991.6,N
1511708335.1,286046990.9,N
1511708336.0,286046990.9,N
1511708355.8,286046990.9,N
1511708375.7,286046989.7,N
1511708395.5,286046991.0,N
